{"data":{"norad_id":63124,"epoch":"2026-05-25T02:49:48.671616Z","epoch_age_seconds":67941,"freshness":"FRESH","line1":"1 63124U 25039W   26145.11792444  .00011819  00000+0  43811-3 0  9994","line2":"2 63124  43.0038 301.3182 0001127 266.5317  93.5406 15.27596839 69754","mean_motion":15.27596839,"eccentricity":0.0001127,"inclination_deg":43.0038,"raan_deg":301.3182,"arg_perigee_deg":266.5317,"mean_anomaly_deg":93.5406,"bstar":0.00043811,"rev_number":6975,"period_min":94.265709592765,"perigee_km":482.22542448852,"apogee_km":483.77192446955,"semimajor_km":6861.135674479,"source":"CELESTRAK","updated_at":"2026-05-25T13:38:19.913163Z"}}